BTK7516 WARR-WIHH

Flight info

Callsign BTK7516
Flight time 1h 0m
Altitude 36000
Route LASEM T2 KALUT T6 KURUS
Aircraft A320/M-SDE3FGHIRWY/LB1

Departure

Time 2026-05-05 04:56
Airport Juanda International Airport (WARR)

Arrival

Time 2026-05-05 05:57
Airport Halim Perdanakusuma International Airport (WIHH)
Time Latitude Longitude Altitude Speed Heading
2026-05-05 04:17 -7.37607 112.79593 9 ft 0 kts
2026-05-05 04:36 -7.37612 112.79592 9 ft 4 kts
2026-05-05 04:36 -7.37639 112.79588 9 ft 4 kts
2026-05-05 04:36 -7.37661 112.79584 9 ft 2 kts
2026-05-05 04:37 -7.37686 112.79584 9 ft 4 kts 334°
2026-05-05 04:37 -7.37702 112.79600 9 ft 3 kts 281°
2026-05-05 04:37 -7.37703 112.79604 9 ft 0 kts 279°
2026-05-05 04:40 -7.37699 112.79581 9 ft 5 kts 279°
2026-05-05 04:40 -7.37693 112.79542 9 ft 8 kts 279°
2026-05-05 04:40 -7.37683 112.79472 9 ft 11 kts 270°
2026-05-05 04:41 -7.37747 112.79441 9 ft 12 kts 189°
2026-05-05 04:41 -7.37836 112.79427 9 ft 14 kts 189°
2026-05-05 04:41 -7.37917 112.79386 10 ft 14 kts 247°
2026-05-05 04:41 -7.37904 112.79288 9 ft 15 kts 277°
2026-05-05 04:42 -7.37886 112.79176 9 ft 17 kts 279°
2026-05-05 04:42 -7.37866 112.79050 9 ft 19 kts 279°
2026-05-05 04:42 -7.37844 112.78913 9 ft 19 kts 279°
2026-05-05 04:42 -7.37821 112.78772 11 ft 21 kts 279°
2026-05-05 04:43 -7.37796 112.78616 9 ft 23 kts 279°
2026-05-05 04:43 -7.37769 112.78450 9 ft 22 kts 279°
2026-05-05 04:43 -7.37745 112.78299 9 ft 23 kts 279°
2026-05-05 04:43 -7.37719 112.78139 11 ft 24 kts 279°
2026-05-05 04:44 -7.37695 112.77988 9 ft 20 kts 279°
2026-05-05 04:44 -7.37679 112.77894 9 ft 21 kts 279°
2026-05-05 04:44 -7.37655 112.77739 9 ft 23 kts 279°
2026-05-05 04:44 -7.37629 112.77578 9 ft 18 kts 279°
2026-05-05 04:45 -7.37611 112.77470 9 ft 12 kts 279°
2026-05-05 04:45 -7.37628 112.77394 8 ft 12 kts 222°
2026-05-05 04:45 -7.37679 112.77379 8 ft 2 kts 189°
2026-05-05 04:45 -7.37680 112.77379 8 ft 0 kts 189°
2026-05-05 04:54 -7.37695 112.77377 10 ft 5 kts 189°
2026-05-05 04:54 -7.37719 112.77373 9 ft 3 kts 189°
2026-05-05 04:55 -7.37759 112.77370 9 ft 7 kts 168°
2026-05-05 04:55 -7.37776 112.77408 9 ft 7 kts 99°
2026-05-05 04:55 -7.37795 112.77522 9 ft 43 kts 99°
2026-05-05 04:55 -7.37881 112.78048 9 ft 105 kts 99°
2026-05-05 04:56 -7.38024 112.78940 10 ft 150 kts 99°
2026-05-05 04:56 -7.38211 112.80054 362 ft 162 kts 100°
2026-05-05 04:56 -7.38401 112.81167 1010 ft 161 kts 100°
2026-05-05 04:56 -7.38588 112.82278 1643 ft 161 kts 100°
2026-05-05 04:57 -7.38778 112.83402 2011 ft 170 kts 100°
2026-05-05 04:57 -7.38990 112.84655 2151 ft 193 kts 100°
2026-05-05 04:57 -7.39230 112.86070 2322 ft 217 kts 100°
2026-05-05 04:57 -7.39497 112.87654 2585 ft 242 kts 99°
2026-05-05 04:58 -7.39790 112.89400 3045 ft 261 kts 99°
2026-05-05 04:58 -7.39835 112.91240 3804 ft 268 kts 77°
2026-05-05 04:58 -7.39051 112.92938 4612 ft 272 kts 52°
2026-05-05 04:58 -7.37586 112.94150 5410 ft 277 kts 26°
2026-05-05 04:59 -7.35709 112.94612 6215 ft 283 kts
2026-05-05 04:59 -7.33770 112.94234 7002 ft 287 kts 343°
2026-05-05 04:59 -7.31860 112.93617 7790 ft 289 kts 342°
2026-05-05 04:59 -7.29937 112.92986 8538 ft 293 kts 342°
2026-05-05 05:00 -7.27992 112.92347 9280 ft 296 kts 342°
2026-05-05 05:00 -7.26026 112.91704 9998 ft 298 kts 342°
2026-05-05 05:00 -7.24032 112.91055 10560 ft 308 kts 343°
2026-05-05 05:00 -7.21918 112.90371 10709 ft 330 kts 343°
2026-05-05 05:01 -7.19664 112.89642 10865 ft 349 kts 342°
2026-05-05 05:01 -7.17456 112.88560 11286 ft 358 kts 324°
2026-05-05 05:01 -7.15710 112.86761 11836 ft 363 kts 304°
2026-05-05 05:01 -7.14675 112.84438 12381 ft 367 kts 286°
2026-05-05 05:02 -7.13985 112.81986 12950 ft 370 kts 285°
2026-05-05 05:02 -7.13298 112.79484 13513 ft 373 kts 285°
2026-05-05 05:02 -7.12611 112.76958 14062 ft 376 kts 285°
2026-05-05 05:02 -7.11915 112.74410 14595 ft 379 kts 285°
2026-05-05 05:03 -7.11211 112.71843 15107 ft 382 kts 285°
2026-05-05 05:03 -7.10497 112.69258 15626 ft 385 kts 285°
2026-05-05 05:03 -7.09773 112.66653 16119 ft 388 kts 285°
2026-05-05 05:03 -7.09040 112.64030 16582 ft 391 kts 285°
2026-05-05 05:04 -7.08302 112.61390 17056 ft 394 kts 285°
2026-05-05 05:04 -7.07589 112.58715 17519 ft 396 kts 281°
2026-05-05 05:04 -7.07092 112.55975 17973 ft 399 kts 280°
2026-05-05 05:04 -7.06600 112.53218 18437 ft 402 kts 280°
2026-05-05 05:05 -7.06103 112.50440 18882 ft 404 kts 280°
2026-05-05 05:05 -7.05603 112.47643 19312 ft 407 kts 280°
2026-05-05 05:05 -7.05098 112.44832 19734 ft 410 kts 280°
2026-05-05 05:05 -7.04587 112.41996 20132 ft 413 kts 280°
2026-05-05 05:06 -7.04070 112.39135 20536 ft 416 kts 280°
2026-05-05 05:06 -7.03551 112.36258 20936 ft 419 kts 280°
2026-05-05 05:06 -7.03029 112.33362 21318 ft 422 kts 280°
2026-05-05 05:06 -7.02486 112.30451 21686 ft 424 kts 283°
2026-05-05 05:07 -7.01597 112.27619 22036 ft 427 kts 292°
2026-05-05 05:07 -7.00488 112.24838 22378 ft 429 kts 292°
2026-05-05 05:07 -6.99374 112.22040 22716 ft 432 kts 291°
2026-05-05 05:07 -6.98259 112.19226 23027 ft 434 kts 291°
2026-05-05 05:08 -6.97140 112.16394 23339 ft 437 kts 291°
2026-05-05 05:08 -6.95891 112.13603 23639 ft 439 kts 299°
2026-05-05 05:08 -6.94258 112.10994 23932 ft 441 kts 303°
2026-05-05 05:08 -6.92564 112.08412 24229 ft 443 kts 303°
2026-05-05 05:09 -6.90883 112.05849 24521 ft 445 kts 303°
2026-05-05 05:09 -6.89173 112.03242 24809 ft 447 kts 303°
2026-05-05 05:09 -6.87458 112.00621 25098 ft 449 kts 303°
2026-05-05 05:09 -6.85737 111.97989 25388 ft 451 kts 303°
2026-05-05 05:10 -6.84012 111.95350 25678 ft 453 kts 303°
2026-05-05 05:10 -6.82277 111.92694 25955 ft 455 kts 303°
2026-05-05 05:10 -6.80534 111.90028 26234 ft 457 kts 304°
2026-05-05 05:10 -6.78783 111.87353 26511 ft 459 kts 304°
2026-05-05 05:11 -6.77022 111.84669 26780 ft 460 kts 304°
2026-05-05 05:11 -6.75256 111.81974 27045 ft 462 kts 304°
2026-05-05 05:11 -6.73483 111.79271 27302 ft 464 kts 304°
2026-05-05 05:11 -6.71702 111.76556 27546 ft 466 kts 304°
2026-05-05 05:12 -6.69915 111.73832 27799 ft 468 kts 304°
2026-05-05 05:12 -6.68119 111.71096 28056 ft 470 kts 304°
2026-05-05 05:12 -6.66319 111.68348 28312 ft 471 kts 304°
2026-05-05 05:12 -6.64512 111.65590 28562 ft 473 kts 304°
2026-05-05 05:13 -6.62699 111.62821 28810 ft 475 kts 303°
2026-05-05 05:13 -6.61030 111.59956 29117 ft 475 kts 297°
2026-05-05 05:13 -6.59507 111.57015 29490 ft 474 kts 298°
2026-05-05 05:13 -6.57982 111.54077 29817 ft 473 kts 298°
2026-05-05 05:14 -6.56459 111.51144 30182 ft 473 kts 298°
2026-05-05 05:14 -6.54937 111.48217 30543 ft 472 kts 298°
2026-05-05 05:14 -6.53418 111.45295 30914 ft 471 kts 298°
2026-05-05 05:14 -6.51903 111.42382 31302 ft 469 kts 298°
2026-05-05 05:15 -6.50394 111.39484 31696 ft 468 kts 298°
2026-05-05 05:15 -6.48890 111.36590 32089 ft 466 kts 298°
2026-05-05 05:15 -6.47392 111.33706 32489 ft 465 kts 298°
2026-05-05 05:15 -6.45896 111.30822 32862 ft 463 kts 298°
2026-05-05 05:16 -6.44411 111.27959 33244 ft 462 kts 298°
2026-05-05 05:16 -6.42927 111.25102 33639 ft 460 kts 298°
2026-05-05 05:16 -6.41445 111.22257 34010 ft 458 kts 298°
2026-05-05 05:16 -6.39965 111.19421 34375 ft 457 kts 298°
2026-05-05 05:17 -6.38492 111.16595 34714 ft 456 kts 298°
2026-05-05 05:17 -6.37026 111.13777 35057 ft 454 kts 298°
2026-05-05 05:17 -6.35566 111.10966 35383 ft 453 kts 298°
2026-05-05 05:17 -6.34095 111.08171 35699 ft 452 kts 298°
2026-05-05 05:18 -6.32606 111.05386 35845 ft 452 kts 298°
2026-05-05 05:18 -6.29591 110.99817 35874 ft 459 kts 298°
2026-05-05 05:19 -6.26541 110.94170 35877 ft 460 kts 298°
2026-05-05 05:19 -6.23498 110.88510 35862 ft 460 kts 298°
2026-05-05 05:20 -6.20447 110.82851 35859 ft 460 kts 298°
2026-05-05 05:20 -6.17403 110.77187 35879 ft 461 kts 298°
2026-05-05 05:21 -6.14357 110.71517 35868 ft 461 kts 298°
2026-05-05 05:21 -6.11312 110.65844 35881 ft 461 kts 298°
2026-05-05 05:22 -6.08263 110.60166 35882 ft 462 kts 298°
2026-05-05 05:22 -6.05203 110.54490 35881 ft 462 kts 299°
2026-05-05 05:23 -6.02141 110.48821 35881 ft 462 kts 299°
2026-05-05 05:23 -5.99879 110.42831 35882 ft 462 kts 276°
2026-05-05 05:24 -5.99696 110.36375 35867 ft 463 kts 271°
2026-05-05 05:24 -5.99594 110.29888 35868 ft 464 kts 271°
2026-05-05 05:25 -5.99488 110.23402 35873 ft 465 kts 271°
2026-05-05 05:25 -5.99369 110.16902 35880 ft 465 kts 271°
2026-05-05 05:26 -5.99259 110.10398 35882 ft 466 kts 271°
2026-05-05 05:26 -5.99146 110.03895 35884 ft 466 kts 271°
2026-05-05 05:27 -5.99029 109.97389 35885 ft 466 kts 271°
2026-05-05 05:27 -5.98855 109.87633 35884 ft 466 kts 271°
2026-05-05 05:28 -5.98741 109.81131 35883 ft 465 kts 271°
2026-05-05 05:28 -5.98635 109.74677 35883 ft 465 kts 271°
2026-05-05 05:29 -5.98524 109.68178 35881 ft 465 kts 271°
2026-05-05 05:29 -5.98402 109.61678 35882 ft 466 kts 271°
2026-05-05 05:30 -5.98275 109.55178 35882 ft 466 kts 271°
2026-05-05 05:30 -5.98154 109.48671 35880 ft 466 kts 271°
2026-05-05 05:31 -5.98039 109.42166 35880 ft 466 kts 271°
2026-05-05 05:31 -5.97920 109.35655 35880 ft 466 kts 271°
2026-05-05 05:32 -5.97798 109.29135 35883 ft 467 kts 271°
2026-05-05 05:32 -5.97679 109.22616 35883 ft 467 kts 271°
2026-05-05 05:33 -5.97555 109.16092 35884 ft 467 kts 271°
2026-05-05 05:33 -5.97449 109.10666 35884 ft 467 kts 271°
2026-05-05 05:34 -5.97326 109.04134 35886 ft 468 kts 271°
2026-05-05 05:34 -5.97208 108.97601 35884 ft 468 kts 271°
2026-05-05 05:35 -5.97082 108.91062 35884 ft 468 kts 271°
2026-05-05 05:35 -5.96950 108.84515 35886 ft 469 kts 271°
2026-05-05 05:36 -5.96820 108.77965 35589 ft 469 kts 271°
2026-05-05 05:36 -5.96758 108.74690 35339 ft 469 kts 271°
2026-05-05 05:36 -5.96697 108.71411 35083 ft 470 kts 271°
2026-05-05 05:37 -5.96635 108.68126 34596 ft 472 kts 271°
2026-05-05 05:37 -5.96570 108.64809 33651 ft 478 kts 272°
2026-05-05 05:37 -5.96501 108.61452 32715 ft 483 kts 272°
2026-05-05 05:37 -5.96432 108.58060 31731 ft 489 kts 271°
2026-05-05 05:38 -5.96363 108.54652 30726 ft 484 kts 271°
2026-05-05 05:38 -5.96352 108.51312 30018 ft 470 kts 266°
2026-05-05 05:38 -5.96784 108.48093 29509 ft 465 kts 257°
2026-05-05 05:38 -5.97704 108.44986 28885 ft 463 kts 248°
2026-05-05 05:39 -5.99062 108.42063 28260 ft 460 kts 243°
2026-05-05 05:39 -6.00499 108.39199 27632 ft 458 kts 243°
2026-05-05 05:39 -6.01909 108.36389 27016 ft 455 kts 243°
2026-05-05 05:39 -6.03345 108.33525 26381 ft 452 kts 243°
2026-05-05 05:40 -6.04735 108.30751 25765 ft 449 kts 243°
2026-05-05 05:40 -6.06131 108.27954 25139 ft 446 kts 243°
2026-05-05 05:40 -6.07516 108.25175 24518 ft 444 kts 243°
2026-05-05 05:40 -6.08893 108.22412 23888 ft 441 kts 243°
2026-05-05 05:41 -6.10263 108.19669 23329 ft 437 kts 243°
2026-05-05 05:41 -6.11619 108.16952 22778 ft 433 kts 243°
2026-05-05 05:41 -6.12954 108.14262 22218 ft 429 kts 244°
2026-05-05 05:41 -6.13895 108.11426 21614 ft 428 kts 260°
2026-05-05 05:42 -6.14141 108.08464 21041 ft 425 kts 267°
2026-05-05 05:42 -6.14269 108.05508 20490 ft 422 kts 268°
2026-05-05 05:42 -6.14392 108.02567 19938 ft 420 kts 268°
2026-05-05 05:42 -6.14511 107.99649 19386 ft 416 kts 268°
2026-05-05 05:43 -6.14631 107.96753 18836 ft 413 kts 267°
2026-05-05 05:43 -6.14784 107.93881 18277 ft 410 kts 266°
2026-05-05 05:43 -6.14987 107.91033 17739 ft 407 kts 265°
2026-05-05 05:43 -6.15214 107.88215 17233 ft 402 kts 265°
2026-05-05 05:44 -6.15446 107.85431 16737 ft 397 kts 265°
2026-05-05 05:44 -6.15668 107.82681 16234 ft 393 kts 265°
2026-05-05 05:44 -6.15878 107.79967 15736 ft 388 kts 265°
2026-05-05 05:44 -6.16081 107.77278 15235 ft 384 kts 265°
2026-05-05 05:45 -6.16280 107.74618 14735 ft 380 kts 265°
2026-05-05 05:45 -6.16473 107.71986 14234 ft 376 kts 266°
2026-05-05 05:45 -6.16663 107.69380 13735 ft 372 kts 266°
2026-05-05 05:45 -6.16851 107.66797 13187 ft 369 kts 266°
2026-05-05 05:46 -6.17039 107.64230 12637 ft 367 kts 266°
2026-05-05 05:46 -6.17228 107.61679 12087 ft 365 kts 266°
2026-05-05 05:46 -6.17416 107.59148 11536 ft 362 kts 266°
2026-05-05 05:46 -6.17602 107.56633 10983 ft 360 kts 266°
2026-05-05 05:47 -6.17787 107.54131 10458 ft 358 kts 266°
2026-05-05 05:47 -6.17969 107.51655 9920 ft 350 kts 266°
2026-05-05 05:47 -6.18143 107.49274 9503 ft 333 kts 266°
2026-05-05 05:47 -6.18309 107.47004 9130 ft 318 kts 266°
2026-05-05 05:48 -6.18469 107.44830 8780 ft 306 kts 266°
2026-05-05 05:48 -6.18622 107.42727 8459 ft 305 kts 266°
2026-05-05 05:48 -6.18773 107.40606 8137 ft 304 kts 266°
2026-05-05 05:48 -6.18925 107.38499 7810 ft 302 kts 266°
2026-05-05 05:49 -6.19079 107.36400 7492 ft 299 kts 266°
2026-05-05 05:49 -6.19232 107.34327 7249 ft 296 kts 266°
2026-05-05 05:49 -6.19382 107.32266 6999 ft 295 kts 266°
2026-05-05 05:49 -6.19528 107.30219 6707 ft 293 kts 266°
2026-05-05 05:50 -6.19654 107.28179 6406 ft 291 kts 268°
2026-05-05 05:50 -6.19698 107.26148 6096 ft 290 kts 270°
2026-05-05 05:50 -6.19697 107.24130 5782 ft 289 kts 271°
2026-05-05 05:50 -6.19682 107.22113 5456 ft 288 kts 271°
2026-05-05 05:51 -6.19667 107.20105 5154 ft 286 kts 271°
2026-05-05 05:51 -6.19660 107.18108 4878 ft 284 kts 270°
2026-05-05 05:51 -6.19659 107.16122 4602 ft 283 kts 270°
2026-05-05 05:51 -6.19660 107.14153 4325 ft 281 kts 270°
2026-05-05 05:52 -6.19667 107.12220 4043 ft 271 kts 270°
2026-05-05 05:52 -6.19675 107.10369 3781 ft 259 kts 270°
2026-05-05 05:52 -6.19683 107.08585 3404 ft 251 kts 270°
2026-05-05 05:52 -6.19688 107.06859 3122 ft 244 kts 270°
2026-05-05 05:53 -6.19696 107.05166 2875 ft 240 kts 268°
2026-05-05 05:53 -6.20038 107.03557 2652 ft 234 kts 245°
2026-05-05 05:53 -6.20703 107.02104 2503 ft 223 kts 244°
2026-05-05 05:53 -6.21341 107.00714 2336 ft 217 kts 243°
2026-05-05 05:54 -6.21959 106.99365 2091 ft 208 kts 243°
2026-05-05 05:54 -6.22549 106.98079 1807 ft 195 kts 243°
2026-05-05 05:54 -6.23095 106.96888 1570 ft 179 kts 243°
2026-05-05 05:54 -6.23593 106.95803 1335 ft 164 kts 243°
2026-05-05 05:55 -6.24044 106.94818 1130 ft 148 kts 243°
2026-05-05 05:55 -6.24469 106.93893 937 ft 144 kts 244°
2026-05-05 05:55 -6.24886 106.92986 744 ft 142 kts 244°
2026-05-05 05:55 -6.25298 106.92088 559 ft 141 kts 243°
2026-05-05 05:56 -6.25706 106.91195 366 ft 141 kts 244°
2026-05-05 05:56 -6.26113 106.90296 175 ft 141 kts 244°
2026-05-05 05:56 -6.26504 106.89440 99 ft 122 kts 245°
2026-05-05 05:56 -6.26803 106.88805 95 ft 76 kts 245°
2026-05-05 05:57 -6.26959 106.88464 95 ft 44 kts 245°
2026-05-05 05:57 -6.27084 106.88197 93 ft 41 kts 245°
2026-05-05 05:57 -6.27156 106.87995 95 ft 22 kts 268°
2026-05-05 05:57 -6.27189 106.87937 97 ft 8 kts 123°
2026-05-05 05:58 -6.27175 106.87998 94 ft 11 kts 64°
2026-05-05 05:58 -6.27139 106.88076 94 ft 14 kts 65°
2026-05-05 05:58 -6.27095 106.88170 94 ft 15 kts 65°
2026-05-05 05:58 -6.27049 106.88270 93 ft 17 kts 65°
2026-05-05 05:59 -6.26994 106.88389 92 ft 20 kts 65°
2026-05-05 05:59 -6.26940 106.88507 93 ft 12 kts 65°
2026-05-05 05:59 -6.26886 106.88535 93 ft 10 kts 340°
2026-05-05 05:59 -6.26816 106.88504 94 ft 12 kts 335°
2026-05-05 06:00 -6.26752 106.88479 93 ft 10 kts 356°
2026-05-05 06:00 -6.26714 106.88513 94 ft 6 kts 36°
2026-05-05 06:00 -6.26675 106.88502 95 ft 6 kts 333°
2026-05-05 06:00 -6.26663 106.88497 94 ft 2 kts 335°
2026-05-05 06:01 -6.26661 106.88495 95 ft 0 kts 335°